Location: Bottens
(46.6171°N, 6.6605°E)
Time: 01:29:47
(UTC+00:00)

Cosmos 2221 - Pass Details

Date: 20 June 2021
Orbit: 591 x 616 km, 82.5° (Epoch: 04 August)

Event Time Altitude Azimuth Distance (km) Brightness Sun altitude
Rises 00:19:55 0° 355° (N) 2,864 7.4 -19.2°
Reaches altitude 10° 00:22:14 10° 2° (N) 1,952 6.3 -19.1°
Maximum altitude 00:26:24 47° 77° (ENE) 796 3.2 -19.0°
Enters shadow 00:28:27 26° 137° (SE) 1,184 3.7 -18.9°
